RH
14 18 16 12 18 15 20 26 26 26 36 57 68 77 93 86 80 89 84 97 98 97 97 80 95 84 98 98 99 99 86 71 53 28 20 17 15 14 14 15 17 18 17 24 29 29 28
13 16 18 15 15 16 15 17 27 24 23 43 62 76 86 89 88 89 87 93 98 97 99 99 98 93 99 98 100 100 96 73 51 30 22 19 16 16 15 15 18 18 21 24 26 27 27
12 13 18 18 14 19 16 17 20 27 21 31 48 65 80 90 94 89 94 97 95 98 96 99 100 94 98 98 99 98 91 70 47 31 25 23 20 19 17 17 19 19 23 24 25 25 24
10 12 14 20 19 13 19 19 22 26 24 30 38 58 73 89 95 93 98 97 98 98 96 96 93 99 93 99 99 98 82 69 54 39 28 25 24 24 21 22 21 21 23 22 23 22 22
17 12 11 17 21 20 14 18 23 25 26 29 44 49 67 84 80 94 91 100 100 99 100 98 98 97 97 97 97 93 72 67 62 58 48 35 34 36 27 27 24 28 27 24 23 21 18
19 11 12 13 22 23 23 18 15 16 20 29 47 54 66 71 76 77 88 97 100 100 95 96 94 89 99 100 93 87 79 66 56 49 49 48 46 39 37 32 34 29 23 23 20 18 15
30 19 12 13 16 24 26 25 24 22 25 25 34 55 59 80 75 79 83 81 82 88 68 83 97 90 100 97 98 90 78 68 56 45 39 36 34 32 30 29 23 20 19 21 20 18 17
44 19 15 13 14 19 26 27 26 27 29 33 35 51 51 49 73 92 62 52 72 81 83 93 94 90 96 89 95 87 77 65 55 48 42 38 36 34 33 32 34 30 28 26 25 22 22
37 42 19 10 13 16 22 27 28 27 26 30 34 42 48 41 49 59 60 56 60 65 68 82 87 89 84 80 76 70 61 58 56 45 43 35 38 33 30 38 44 41 36 31 29 28 26
15 39 37 18 10 13 17 22 28 31 28 26 31 33 34 35 38 40 41 45 48 54 61 68 62 73 78 73 68 68 62 56 56 49 50 44 38 37 36 35 33 33 36 35 35 34 29
11 20 41 30 16 11 13 16 21 29 33 32 25 24 30 26 32 38 35 40 43 47 86 66 70 67 66 64 64 61 58 58 57 52 50 49 40 36 33 32 31 39 37 40 40 46 46
5 10 21 42 23 14 11 14 16 21 30 33 30 27 26 24 23 34 41 40 45 48 85 66 76 65 51 56 57 63 60 55 47 45 39 38 38 34 34 33 31 35 42 49 59 65 72
5 5 9 18 42 21 12 11 14 15 20 28 30 28 27 21 20 27 30 33 36 61 66 73 80 86 67 46 39 46 45 39 39 44 44 44 47 46 47 48 48 49 48 60 65 88 68
8 5 4 7 18 41 20 12 11 12 15 19 26 29 27 18 18 24 23 22 38 76 81 73 81 76 68 65 64 48 46 37 40 39 49 59 60 63 61 57 69 71 69 73 70 94 91
16 8 5 5 6 19 40 21 11 11 12 14 19 26 28 26 19 19 19 20 52 63 66 75 72 67 70 74 72 69 58 56 52 48 48 55 64 68 70 72 74 85 83 89 94 95 97
20 16 9 5 5 7 17 37 26 12 10 11 15 20 26 30 27 23 19 34 52 55 52 54 60 66 73 73 73 70 58 54 53 54 55 55 74 78 78 74 74 80 83 93 95 97 95
18 18 14 9 5 5 8 14 33 34 15 11 11 12 20 27 30 31 31 45 51 60 67 67 66 61 59 67 74 68 54 46 45 47 44 56 59 68 70 63 69 74 88 86 85 99 92
16 16 14 11 8 5 6 8 14 30 37 18 11 12 13 19 24 24 35 44 48 53 52 55 62 61 60 57 50 45 44 44 40 44 43 43 43 54 58 62 73 82 87 84 75 86 95
13 14 13 11 9 7 6 7 8 12 26 37 19 12 12 13 16 23 28 33 38 41 40 39 40 44 47 48 42 36 34 32 29 29 25 27 39 40 64 65 75 76 54 68 88 82 87
11 11 12 11 10 11 11 12 18 13 10 22 35 26 18 13 14 16 20 26 28 29 30 32 32 33 33 33 36 28 28 27 30 34 37 36 32 26 17 18 29 46 33 44 76 84 75
9 9 8 9 10 13 18 23 25 24 23 15 23 41 41 19 17 17 17 18 22 24 27 28 27 27 26 28 27 32 29 29 26 30 34 44 38 32 27 26 30 29 32 46 60 50 75
8 13 25 30 18 10 11 26 24 23 29 28 19 30 44 44 25 20 19 18 22 25 25 24 26 28 31 30 32 32 31 30 31 28 36 44 46 46 27 21 25 25 18 21 30 40 45
8 11 18 22 26 26 24 21 21 25 29 33 34 24 30 48 52 39 24 22 21 20 22 24 26 27 26 28 29 30 30 29 31 33 39 53 52 53 48 38 34 22 14 12 11 13 16
21 28 28 36 39 39 37 34 30 29 32 40 44 42 23 38 55 59 50 23 25 27 22 22 23 24 24 26 24 22 20 19 21 23 31 49 57 67 70 50 49 12 13 15 15 15 17
35 33 33 38 46 49 46 44 42 35 36 44 51 47 42 29 44 53 61 46 27 26 25 28 24 22 25 27 28 25 20 18 18 21 27 38 58 72 74 85 30 14 16 13 15 13 15
28 25 26 33 45 50 52 50 47 43 39 44 53 53 50 45 51 52 69 70 64 68 58 27 24 28 32 33 33 31 22 19 21 24 25 35 60 74 88 91 60 18 18 20 21 15 14
39 32 28 40 48 55 64 61 54 47 48 56 57 55 53 52 50 54 58 71 74 74 64 59 71 32 29 31 39 41 33 29 26 28 28 44 68 69 99 94 47 19 21 23 28 18 21
36 35 42 56 59 69 68 68 64 59 69 72 64 62 58 52 56 56 61 72 75 81 78 75 72 48 35 40 36 35 34 32 32 35 30 32 36 60 97 97 63 15 22 30 30 33 35
45 52 62 63 71 75 75 75 77 78 83 80 74 70 61 57 61 62 58 62 68 73 72 54 68 46 35 44 41 36 35 37 37 42 45 49 44 38 39 36 37 39 41 40 39 38 42
Wind_Speed
30 31 31 31 28 26 28 29 34 36 41 43 34 28 27 27 30 26 24 22 21 18 15 16 18 24 34 42 28 36 31 28 29 30 30 30 29 28 28 29 27 20 21 17 17 16 16
30 31 31 30 28 25 26 28 29 31 38 42 43 28 26 27 26 23 23 20 24 17 24 26 28 29 37 35 37 38 32 29 28 28 28 28 29 26 27 27 25 20 20 18 17 16 15
28 30 31 31 28 25 24 27 27 26 34 39 45 37 29 25 26 22 23 21 26 19 13 38 42 30 37 33 39 34 30 28 26 24 23 24 25 23 24 22 22 19 20 18 16 16 16
30 29 31 31 30 25 24 23 26 24 30 34 39 43 34 32 24 24 25 28 25 30 32 28 32 34 38 39 35 32 27 27 24 21 19 21 20 17 23 20 21 17 17 16 17 16 16
34 27 29 30 31 27 24 24 24 25 26 31 35 41 39 32 28 23 22 25 25 29 35 26 35 43 41 33 31 28 27 25 24 22 19 19 19 18 20 17 20 17 12 16 13 15 17
35 31 28 29 31 29 26 23 23 24 26 27 31 33 42 33 29 22 26 27 32 32 33 23 23 35 31 28 29 26 24 24 24 22 20 17 15 15 15 16 14 16 14 15 15 13 16
36 33 27 28 29 30 29 25 23 24 24 25 24 28 28 40 33 22 26 28 30 32 31 34 32 35 27 23 23 25 20 20 21 20 20 17 14 13 13 11 7 9 12 9 10 13 15
37 34 32 26 28 29 29 27 26 24 22 21 21 23 21 21 34 30 26 34 42 42 42 33 32 34 31 27 24 21 19 19 16 17 17 16 14 13 11 9 7 8 8 8 8 11 15
36 35 32 29 26 27 28 27 27 27 24 22 18 17 17 17 19 22 32 34 39 38 39 33 26 24 25 22 25 21 19 20 17 19 17 16 15 13 11 9 7 6 6 7 9 12 18
35 36 34 31 25 25 26 27 27 26 27 25 21 16 15 12 13 14 12 16 20 25 21 24 18 16 19 18 19 18 15 17 20 17 16 10 13 11 10 8 7 6 5 7 10 11 7
30 33 35 32 28 22 24 25 26 26 25 25 24 21 16 14 8 8 12 9 5 4 6 8 20 15 8 10 16 13 14 13 15 15 7 10 12 9 8 6 6 4 5 7 10 11 13
26 29 32 33 29 26 21 22 24 24 24 25 23 23 20 14 10 6 10 10 9 6 6 7 12 15 16 14 14 14 11 12 9 10 12 13 11 7 5 4 4 4 5 7 9 8 3
23 25 28 31 31 27 23 19 20 22 23 23 23 22 22 18 11 6 9 5 6 10 9 7 14 16 15 16 16 12 12 8 7 8 12 11 7 6 4 3 1 1 3 3 3 2 5
20 23 24 27 29 30 25 21 18 19 20 21 22 22 21 23 13 11 9 5 13 9 12 15 13 12 15 17 16 12 11 9 7 9 10 4 4 5 4 3 2 2 3 2 4 1 5
18 19 22 23 26 28 28 24 19 16 17 19 19 19 19 16 15 15 16 20 12 14 16 13 11 9 9 10 8 9 13 9 6 4 3 5 4 6 4 3 1 1 0 1 2 4 5
16 17 19 21 22 23 26 26 23 17 14 15 15 15 16 17 16 13 15 18 13 16 11 7 7 5 6 6 5 4 5 5 7 5 5 7 6 6 5 3 5 5 3 2 2 1 4
15 16 16 17 19 21 22 25 24 21 16 12 11 12 12 13 12 13 20 19 15 11 8 5 8 9 9 7 5 4 3 5 5 4 3 6 3 6 5 6 4 6 8 6 5 5 3
12 14 14 15 16 18 20 22 23 24 20 15 10 9 9 10 7 10 13 12 12 10 9 8 6 6 6 6 5 4 4 3 3 4 2 3 2 4 4 7 9 11 12 11 6 6 9
11 12 12 13 14 15 17 19 21 22 23 20 12 9 8 8 6 8 8 7 5 5 3 3 3 4 6 5 2 4 4 4 3 3 2 2 2 2 3 8 14 18 17 17 17 14 17
13 12 11 11 12 14 15 17 20 22 21 21 17 10 8 6 6 4 3 3 2 2 2 1 2 3 3 2 3 3 2 2 2 3 5 6 7 8 9 7 10 14 17 18 22 15 17
14 13 12 11 11 12 14 15 17 20 23 20 18 14 12 7 5 4 4 1 2 2 3 3 3 3 3 3 4 5 4 5 6 8 8 8 12 16 18 18 22 28 30 30 32 35 29
16 15 14 13 13 13 14 15 16 16 18 21 17 15 13 11 7 5 6 5 5 6 5 5 6 7 7 7 8 10 11 11 9 10 10 14 13 21 32 24 19 27 28 30 36 42 48
17 17 18 19 19 17 17 18 19 19 18 19 19 16 13 10 11 8 6 6 8 9 9 8 9 10 10 11 13 13 15 16 18 21 21 20 18 16 12 14 25 29 10 9 17 22 25
18 17 17 18 21 23 24 24 23 21 20 17 18 19 16 12 11 12 10 8 10 11 13 14 14 15 14 15 17 20 21 21 23 25 25 25 22 16 17 19 3 4 14 17 21 21 22
21 20 20 21 24 29 30 29 29 26 24 21 18 18 19 16 13 9 13 10 10 13 13 12 14 16 17 19 19 13 13 12 12 13 16 18 20 11 7 9 24 11 3 4 11 20 18
26 26 26 27 30 33 33 30 29 27 25 23 20 18 19 20 12 15 11 14 15 13 14 12 11 13 14 14 11 6 5 6 5 5 8 10 14 17 8 4 5 6 11 17 19 18 2
31 31 30 33 38 38 30 28 27 26 24 21 20 20 19 19 17 16 18 17 12 11 13 16 16 13 13 13 14 9 8 8 6 6 8 12 13 23 20 10 17 21 17 15 9 9 17
33 32 34 37 37 34 32 29 27 25 23 21 21 21 21 21 19 20 15 12 16 18 16 15 14 12 10 9 7 7 8 8 10 13 10 10 8 12 14 11 13 5 13 18 24 35 34
36 36 37 38 33 30 29 27 26 25 24 23 19 19 20 19 19 19 22 20 19 15 14 13 12 11 8 7 7 7 11 13 18 15 20 18 18 13 15 19 29 38 41 42 37 34 36
Wind_Direction
31 31 31 29 29 29 29 24 23 26 29 30 26 22 28 39 51 50 48 64 87 74 91 150 179 199 168 165 155 169 168 172 172 176 173 175 176 179 180 187 187 191 195 191 189 187 197
30 31 31 29 27 26 26 22 19 29 30 32 28 30 42 51 61 54 56 83 70 78 84 130 152 179 154 141 152 159 159 169 173 174 171 173 173 175 184 184 187 190 192 196 201 208 214
30 32 31 30 27 24 23 22 20 24 28 34 35 43 40 47 70 60 73 76 77 85 91 129 138 180 179 135 143 149 158 165 163 164 170 169 175 180 178 180 187 194 195 201 210 221 233
31 31 32 31 29 24 20 19 19 21 27 31 37 40 42 44 77 71 74 80 80 81 65 66 140 135 150 141 142 142 149 157 153 153 167 166 169 175 176 178 183 190 202 209 219 227 236
31 31 33 33 32 28 22 19 11 17 23 28 40 42 42 51 66 78 86 86 88 91 82 79 95 122 114 128 130 136 147 153 152 156 163 168 169 169 173 176 179 181 198 212 224 230 236
29 30 34 32 35 32 28 22 13 14 20 25 34 46 46 50 58 68 83 83 93 101 91 90 95 99 114 127 139 148 149 151 151 155 160 170 173 169 173 178 188 195 198 208 220 233 241
30 31 33 34 33 35 31 29 24 17 24 28 27 37 57 54 56 74 79 96 98 93 96 90 97 101 113 112 118 143 139 142 149 154 160 163 165 156 163 179 194 196 206 211 223 241 256
31 32 33 34 33 34 34 31 31 28 23 35 28 34 55 72 69 74 86 95 91 91 87 89 94 97 105 111 113 124 134 140 144 150 156 154 159 161 169 174 177 179 191 207 234 253 270
30 32 32 34 35 34 34 33 32 36 31 32 37 41 48 72 85 87 82 83 85 89 86 80 86 101 109 114 111 115 128 132 142 147 151 161 158 166 173 176 182 194 217 241 263 279 285
29 29 31 34 34 34 34 32 32 34 38 38 37 43 55 56 101 115 94 85 79 80 79 69 73 81 105 108 105 113 127 133 134 133 133 132 153 167 175 181 198 218 249 270 287 298 285
27 31 29 30 34 35 34 33 32 31 34 38 40 38 48 57 49 105 102 102 99 91 59 50 63 81 96 112 113 106 114 118 134 136 141 142 149 157 172 192 214 237 268 287 289 293 301
24 27 30 28 30 34 34 33 32 32 32 35 37 38 41 54 58 61 81 64 70 74 61 85 86 85 101 103 108 108 115 123 115 125 124 134 140 144 164 180 200 239 290 297 291 297 300
17 23 25 28 27 30 32 32 32 32 33 32 34 38 40 47 65 74 70 36 72 63 115 98 111 99 96 94 99 110 121 128 131 116 122 117 125 127 141 132 141 279 315 307 336 351 227
17 16 22 24 25 28 28 30 30 31 32 34 36 38 41 45 65 91 92 77 75 97 107 116 101 96 92 89 81 98 105 112 113 130 129 111 129 129 130 125 153 68 51 80 218 303 293
13 13 13 19 23 25 29 25 28 30 31 31 36 39 47 51 63 77 104 99 109 112 121 113 93 83 88 87 97 88 82 92 108 147 127 122 132 141 147 115 100 146 335 332 266 267 283
5 8 10 11 18 23 26 27 24 23 27 31 33 38 47 56 65 78 100 97 116 122 123 110 95 80 95 79 61 72 69 78 87 104 121 147 140 178 193 229 246 231 230 199 239 286 283
360 1 5 7 7 16 23 24 24 24 20 24 30 35 43 52 66 75 88 99 110 117 116 95 111 121 125 114 100 66 74 76 68 93 102 155 160 183 206 214 210 214 226 208 214 199 207
354 354 357 0 2 7 12 20 20 18 21 20 17 31 35 46 51 70 83 97 106 107 106 114 115 127 126 124 114 111 130 132 92 106 101 171 171 196 202 221 227 232 238 225 208 208 220
341 345 348 351 356 0 4 9 13 15 15 17 24 22 18 26 46 59 70 90 101 118 127 152 146 159 167 159 131 134 144 150 159 168 173 177 207 218 234 243 241 243 248 245 239 248 235
328 334 335 340 346 349 353 358 4 5 9 11 13 16 14 11 13 26 72 57 68 102 132 168 164 162 154 168 195 194 193 235 283 281 268 276 250 247 244 271 274 254 269 259 239 235 246
316 328 332 335 334 334 338 347 355 359 355 2 9 3 5 353 344 319 319 264 190 264 278 262 247 251 253 259 274 251 268 280 298 284 271 273 283 285 286 284 276 272 265 259 245 248 246
309 317 326 332 334 328 327 328 338 345 348 347 352 358 353 348 345 320 293 283 268 252 250 266 264 269 275 280 280 288 291 297 297 290 276 282 286 300 301 308 285 279 272 262 258 258 262
296 304 315 321 324 326 326 324 328 333 335 337 335 333 339 339 332 324 301 282 271 271 272 258 252 257 272 281 281 280 282 283 280 280 279 279 284 298 290 300 303 293 303 256 265 273 275
277 293 308 321 325 323 322 320 320 322 324 324 327 325 323 328 325 316 304 292 277 274 272 274 269 270 274 274 280 285 286 285 279 274 270 268 276 288 289 314 316 305 308 292 294 293 284
276 284 296 305 314 319 316 314 314 313 316 318 320 319 315 312 318 308 306 301 297 292 287 281 278 278 278 283 291 292 279 273 265 264 261 260 256 266 277 290 291 307 31 292 294 306 294
275 282 289 296 305 309 306 301 301 303 304 303 306 308 308 306 302 301 285 296 297 290 287 285 287 283 283 285 287 270 277 258 248 240 238 233 223 228 251 267 264 276 294 300 309 315 121
268 276 284 296 301 300 293 290 288 290 291 288 292 299 304 302 299 293 288 286 273 293 291 290 290 280 279 279 276 270 261 254 263 239 226 215 217 225 234 252 273 297 279 291 287 298 290
266 276 286 292 293 290 289 286 284 282 279 279 286 292 297 298 298 291 283 278 276 287 287 275 283 280 265 259 255 254 256 249 259 265 277 265 249 225 209 223 265 312 300 293 302 300 293
271 277 279 284 280 284 282 277 274 273 275 281 281 290 293 296 299 290 284 282 281 275 277 278 258 265 267 263 263 270 262 263 272 273 274 250 260 266 246 274 291 297 300 299 298 292 296